Wind_Speed
22 20 17 15 14 12 2 5 8 10 13 13 13 12 13 15 14 13 13 12 9 11 10 10 10 10 10 11 11 11 11 11 11 12 13 13 13 12 12 12 13 13 13 13 13 13 13 13 12
24 23 21 19 18 11 5 9 10 15 15 12 13 11 13 14 12 11 11 9 8 9 9 9 9 9 9 9 9 9 8 9 9 10 11 11 11 10 10 11 11 12 12 13 13 13 13 13 13
26 26 24 23 20 12 5 7 10 11 12 11 10 10 11 11 10 9 8 8 7 8 8 8 8 8 8 7 7 7 7 7 8 8 9 9 9 9 10 10 10 11 12 12 13 13 13 13 13
28 29 28 27 24 14 8 10 9 8 10 10 9 7 9 9 7 7 7 7 7 7 7 7 7 6 5 5 5 5 5 5 6 6 7 7 8 8 8 9 10 10 11 12 12 13 13 14 14
30 31 31 31 28 20 14 12 13 10 9 9 8 8 8 7 6 6 6 7 7 7 7 7 6 5 4 3 3 3 3 3 4 5 6 6 7 7 8 8 9 10 11 12 13 14 15 15 15
31 32 33 31 27 22 18 15 16 12 10 9 9 11 8 5 5 6 6 7 7 7 7 7 6 5 4 3 2 1 2 2 3 4 5 6 6 7 7 8 9 10 11 13 14 15 16 16 17
29 30 31 29 25 22 18 17 17 14 12 11 10 11 7 5 5 6 6 7 7 6 6 6 5 4 3 2 1 0 1 2 3 4 5 6 7 7 7 8 9 10 12 13 15 16 16 17 17
26 29 29 29 26 23 18 18 19 16 14 13 11 13 12 7 6 6 6 7 6 6 5 5 4 3 2 1 1 1 2 3 4 5 6 7 7 8 9 9 10 11 12 14 15 16 16 16 16
23 26 27 26 24 21 19 17 18 17 17 16 14 17 14 8 7 7 6 6 6 5 4 3 2 1 1 2 3 4 4 5 6 6 7 8 9 10 10 11 12 12 13 15 16 17 17 17 17
20 20 20 23 23 19 19 19 19 17 17 15 15 16 13 10 8 7 6 5 5 4 3 1 1 2 4 5 5 6 7 8 8 9 9 10 11 12 12 13 14 15 16 17 18 18 18 18 18
18 18 20 23 23 23 22 20 21 20 18 16 16 18 13 10 9 8 7 6 5 5 4 4 5 6 7 8 9 10 10 11 11 12 12 13 13 14 15 17 18 19 19 19 20 21 21 21 20
17 18 20 22 23 26 25 23 22 22 20 19 19 20 17 13 12 10 9 8 7 7 7 8 8 9 10 12 12 14 14 14 14 14 15 16 17 18 19 21 22 23 23 23 24 24 24 24 23
18 17 19 21 22 23 26 26 24 23 23 22 21 20 18 14 13 12 12 11 10 9 9 10 11 13 14 15 16 17 16 16 16 17 18 19 21 23 24 26 27 27 27 27 28 29 29 29 29
19 19 18 19 19 19 22 23 24 24 23 22 20 18 16 14 13 15 14 12 12 11 11 12 14 15 17 18 19 20 20 20 20 20 21 23 25 27 28 29 30 31 31 32 33 33 33 33 32
21 20 18 17 16 17 19 21 22 22 22 22 19 17 17 16 16 16 16 13 13 13 13 15 16 17 19 21 22 22 23 23 23 23 24 26 28 29 31 31 32 33 32 34 35 35 35 35 35
22 20 18 16 15 15 18 18 19 21 22 22 19 17 18 17 16 17 17 16 15 15 15 16 18 18 21 23 24 25 25 25 25 25 26 27 28 30 31 31 32 33 32 32 33 33 33 34 35
21 19 17 15 15 15 16 15 15 17 20 21 19 19 19 19 19 21 21 20 17 17 16 18 20 20 22 24 25 26 26 27 27 27 28 29 30 31 32 33 33 33 33 31 30 30 29 29 31
17 16 15 14 17 16 16 16 16 17 19 20 20 19 18 18 19 22 24 22 19 18 18 20 22 23 24 26 27 28 28 28 29 29 29 31 32 33 34 34 34 34 32 30 29 29 28 26 26
18 16 14 13 17 19 18 19 20 19 21 22 21 20 20 21 23 26 25 23 23 21 21 22 25 27 27 28 29 31 31 31 31 31 32 34 35 35 35 35 35 34 31 30 29 28 27 25 24
25 23 20 18 21 24 22 22 24 25 24 26 26 26 27 29 31 29 27 25 27 26 24 26 28 29 30 31 32 33 34 34 33 34 35 37 38 39 37 37 37 34 31 29 28 28 27 26 26
29 27 23 21 24 27 26 24 25 28 29 29 30 32 33 33 32 29 29 29 30 31 29 30 31 32 33 33 34 35 36 36 37 37 38 40 41 41 41 40 38 35 33 31 29 29 29 28 28
28 27 26 27 27 26 26 25 24 25 28 30 33 35 35 33 33 33 33 33 34 34 34 34 34 35 35 35 36 37 38 39 40 40 41 43 44 43 42 42 39 36 34 32 31 31 31 31 31
25 23 25 28 30 29 27 27 23 22 27 31 35 35 33 33 33 34 35 36 36 37 37 37 37 36 36 37 38 39 40 41 42 42 44 45 45 44 43 42 41 38 36 35 34 34 34 34 35
26 26 26 27 28 30 28 26 23 23 29 36 39 35 33 33 34 35 36 37 38 38 38 38 37 37 37 38 39 40 42 43 43 44 45 45 45 45 45 44 41 40 39 38 37 37 37 38 39
25 26 24 23 25 25 21 23 26 30 33 38 39 37 35 35 35 36 37 37 37 38 38 37 37 37 38 38 39 41 42 43 44 45 45 46 46 46 45 44 43 42 41 41 41 41 41 42 43
23 24 23 18 14 14 15 21 29 34 36 38 39 40 40 40 39 37 36 36 35 35 36 35 36 36 37 38 39 41 43 44 46 47 47 47 46 46 46 45 45 44 44 44 44 44 44 45 46
21 22 21 21 20 18 15 22 30 32 33 35 38 40 41 41 40 38 36 34 33 33 33 33 34 35 36 38 40 42 43 45 47 47 48 48 48 48 49 49 48 48 47 47 47 48 48 49 50
19 19 20 24 23 21 18 22 29 29 30 32 34 37 38 38 36 34 33 32 31 32 32 33 34 35 36 38 40 42 44 46 47 48 48 49 50 51 51 51 51 51 51 50 51 51 51 52 53
17 19 21 23 22 22 20 23 28 27 30 32 33 33 31 30 30 30 31 31 31 32 32 34 35 36 38 39 41 43 44 46 47 49 50 52 53 54 54 54 54 54 53 54 54 54 55 55 55
15 18 20 23 24 24 23 27 31 31 33 33 31 29 29 28 29 30 31 32 33 34 35 36 37 39 40 41 43 45 47 48 50 51 53 54 55 56 56 56 56 56 56 56 56 57 57 57 57
Wind_Direction
212 207 205 195 182 167 90 267 251 257 254 255 258 268 272 266 270 270 264 260 252 246 242 237 232 230 231 232 232 233 236 241 246 250 252 253 253 253 253 253 253 253 254 255 256 257 258 260 263
213 208 206 199 188 165 222 242 248 256 257 267 272 272 272 276 276 267 255 250 239 237 234 233 230 229 230 232 233 235 238 243 247 249 249 250 251 252 253 254 255 257 259 260 262 262 263 264 265
214 210 208 202 194 177 224 237 241 255 266 265 273 285 282 281 272 258 243 234 224 224 225 227 225 225 228 232 234 237 239 244 249 251 251 253 255 257 259 260 261 262 264 266 268 268 269 269 270
215 212 211 206 198 184 231 270 261 251 263 266 265 273 280 275 262 242 226 213 205 208 209 210 211 214 218 220 226 233 240 250 258 261 262 263 264 266 266 267 267 268 270 272 273 273 273 273 274
216 215 213 209 205 197 211 242 255 244 254 265 268 267 271 261 245 224 206 194 188 187 188 189 191 192 191 199 216 233 255 269 277 279 279 278 277 277 276 276 276 277 277 277 277 277 276 276 276
216 215 215 212 211 213 221 238 248 244 242 255 261 261 252 236 227 208 195 187 180 176 177 177 176 174 173 178 191 221 270 290 294 295 294 291 288 286 285 284 283 282 280 279 279 278 277 276 276
216 215 214 213 212 216 224 237 243 238 234 236 243 256 245 217 214 201 192 186 179 175 175 172 170 165 162 160 155 173 303 305 307 308 308 306 303 299 296 292 288 285 283 282 281 279 278 277 277
213 214 212 209 210 213 216 236 240 229 225 228 232 243 236 205 204 199 192 187 179 175 176 175 176 161 143 116 34 357 344 338 331 326 323 321 318 315 310 304 299 295 292 290 288 286 284 282 280
213 214 211 207 209 212 213 232 237 229 221 221 229 237 230 208 200 203 199 192 181 174 175 175 168 145 51 14 4 355 349 346 342 337 333 330 327 324 320 315 311 307 304 300 296 294 291 286 283
215 214 208 204 204 210 218 229 227 223 225 220 232 243 232 209 208 213 211 205 199 199 205 230 294 324 335 342 348 348 342 339 337 334 332 331 329 327 325 321 317 312 309 305 301 297 292 287 284
216 213 205 203 204 209 210 219 222 215 216 215 228 240 232 218 218 222 228 233 243 252 265 279 301 315 324 330 333 335 335 333 333 331 331 331 330 328 327 324 320 314 310 305 301 297 291 287 284
218 215 212 207 211 216 208 207 213 211 208 210 219 231 224 228 233 236 245 245 255 269 282 292 304 313 320 324 327 330 333 333 333 333 333 332 330 329 329 325 321 316 311 306 303 298 294 288 281
221 222 220 219 220 223 216 209 206 202 208 213 220 227 223 226 243 248 251 252 259 271 288 299 310 316 320 322 325 328 330 333 335 333 331 331 332 333 330 327 324 318 313 308 303 298 295 289 281
223 226 227 228 229 231 223 214 208 201 209 219 223 223 233 235 244 253 249 250 265 277 290 300 309 316 319 321 324 327 329 331 331 331 330 330 332 332 331 329 325 320 316 311 304 297 291 287 281
225 229 231 234 235 232 224 213 204 203 211 221 225 225 228 232 241 251 253 248 267 279 290 299 306 313 317 319 321 324 326 327 327 327 328 329 331 332 333 334 330 325 318 314 308 302 294 288 284
225 230 233 236 237 229 220 209 201 208 214 222 221 227 229 232 242 253 260 260 266 279 289 296 301 307 310 313 315 319 321 321 322 324 326 327 329 332 333 333 333 333 328 321 315 308 300 293 288
225 231 234 238 241 229 218 199 196 214 222 223 220 229 234 232 233 245 254 259 267 279 287 293 296 300 303 306 308 311 313 314 314 318 321 322 324 327 329 329 329 332 333 328 321 317 311 301 294
223 235 235 233 245 235 219 194 188 207 223 227 224 227 233 237 235 243 251 260 265 275 283 289 293 295 297 299 301 302 303 304 307 311 315 316 319 319 321 324 326 328 329 327 325 324 320 311 300
204 221 229 228 237 242 226 204 193 205 221 224 224 226 232 235 238 241 248 258 265 270 277 284 288 290 291 292 293 294 295 296 300 303 306 308 310 311 314 317 320 323 325 323 324 325 325 320 312
213 213 208 211 224 237 233 216 206 209 222 227 226 225 229 233 236 242 246 253 266 271 273 278 283 285 285 286 286 287 289 291 294 296 298 300 303 305 308 312 314 316 317 318 318 320 320 318 316
219 217 208 210 226 238 239 232 222 222 225 231 234 231 232 237 242 248 252 258 266 271 274 276 279 281 281 281 281 282 284 287 287 289 292 294 297 299 303 306 307 309 310 310 312 313 313 313 311
224 222 217 214 223 234 242 243 236 238 239 237 240 240 241 244 248 253 257 262 266 270 273 276 277 278 277 277 278 278 280 281 283 286 288 289 291 294 298 300 302 303 303 304 306 307 307 306 304
225 222 226 226 227 231 236 242 240 245 246 243 244 246 250 253 255 257 259 262 265 269 272 275 276 276 275 275 275 276 277 279 280 282 284 286 289 292 294 297 299 299 299 299 300 301 301 301 300
225 224 227 232 234 237 237 240 240 239 243 245 251 255 259 261 261 261 261 262 265 268 270 272 273 274 273 274 274 275 277 278 279 281 284 286 289 291 293 295 295 296 296 295 296 297 297 298 297
227 227 231 239 242 248 250 247 241 237 240 247 255 261 264 265 266 266 265 264 265 267 269 270 271 271 272 273 273 274 276 278 280 282 285 287 288 289 291 292 292 293 293 293 294 294 295 295 295
233 230 227 229 248 264 260 249 242 242 243 248 253 259 264 267 269 269 267 266 265 266 267 268 268 269 269 271 272 273 275 277 279 282 284 285 287 288 290 290 290 291 291 292 293 293 293 294 293
231 233 228 222 219 235 247 242 241 247 249 252 255 259 263 267 268 269 267 266 265 265 266 266 266 267 268 269 271 273 275 277 279 282 283 285 286 287 287 288 288 289 290 291 292 292 292 292 292
231 232 229 226 225 230 234 254 260 261 259 258 260 261 262 264 265 265 265 266 265 265 265 265 266 266 268 269 270 272 274 276 279 281 282 284 285 286 286 287 287 289 289 290 291 292 291 291 290
233 228 227 231 230 234 241 251 257 259 255 256 256 257 258 259 260 262 263 263 264 264 265 265 266 267 268 269 271 272 274 276 278 280 281 283 284 285 286 286 287 289 289 290 291 292 291 291 290
232 235 233 235 234 232 239 258 259 261 264 265 261 261 257 255 255 258 259 261 262 263 264 265 265 267 268 269 271 273 274 275 277 278 280 281 282 283 284 285 287 289 289 290 291 291 292 292 292
Height
5883 5886 5888 5892 5896 5898 5900 5902 5900 5898 5896 5896 5896 5896 5895 5893 5893 5895 5892 5891 5892 5892 5893 5893 5894 5895 5896 5897 5897 5898 5898 5898 5899 5899 5900 5900 5900 5900 5900 5900 5900 5901 5901 5901 5901 5901 5901 5901 5901
5880 5884 5887 5890 5893 5895 5898 5898 5897 5896 5895 5895 5895 5894 5892 5891 5891 5891 5890 5890 5891 5891 5892 5892 5893 5894 5895 5895 5896 5896 5897 5897 5898 5898 5898 5899 5899 5899 5899 5899 5899 5899 5899 5899 5899 5899 5900 5900 5900
5877 5880 5884 5887 5890 5892 5894 5895 5895 5895 5895 5895 5894 5893 5892 5890 5890 5889 5889 5889 5890 5890 5891 5891 5892 5893 5893 5894 5894 5895 5895 5896 5897 5897 5898 5898 5898 5898 5898 5898 5898 5898 5898 5898 5898 5898 5898 5898 5898
5873 5876 5880 5884 5887 5890 5893 5894 5892 5894 5894 5894 5893 5892 5890 5890 5889 5889 5888 5889 5890 5890 5890 5891 5891 5892 5892 5893 5893 5894 5894 5895 5896 5896 5897 5897 5897 5897 5897 5897 5897 5897 5897 5896 5896 5896 5896 5896 5896
5868 5872 5875 5878 5882 5886 5890 5892 5892 5893 5894 5892 5893 5890 5889 5889 5888 5888 5888 5888 5889 5890 5890 5890 5891 5891 5891 5892 5893 5893 5894 5895 5895 5896 5896 5896 5896 5896 5896 5896 5896 5895 5895 5895 5894 5894 5894 5893 5893
5863 5867 5871 5875 5880 5885 5888 5890 5891 5892 5893 5893 5892 5890 5888 5888 5888 5888 5888 5888 5889 5889 5890 5891 5891 5891 5891 5892 5892 5893 5894 5894 5894 5894 5895 5894 5894 5894 5894 5894 5894 5894 5893 5893 5892 5891 5891 5891 5891
5860 5863 5867 5872 5877 5882 5886 5889 5889 5890 5891 5892 5891 5888 5887 5887 5888 5888 5888 5888 5889 5890 5890 5891 5891 5891 5892 5892 5893 5893 5893 5894 5894 5894 5893 5893 5893 5893 5893 5893 5892 5892 5891 5890 5889 5889 5888 5888 5888
5856 5860 5863 5867 5872 5877 5883 5885 5885 5887 5889 5889 5890 5888 5884 5886 5888 5888 5888 5889 5889 5890 5890 5891 5891 5892 5892 5893 5893 5893 5893 5893 5893 5893 5893 5893 5892 5892 5892 5891 5891 5890 5890 5889 5888 5887 5886 5886 5885
5853 5856 5859 5864 5869 5874 5879 5882 5883 5885 5886 5887 5887 5885 5883 5886 5888 5889 5889 5889 5889 5890 5890 5891 5892 5892 5892 5893 5893 5893 5893 5893 5892 5892 5892 5892 5892 5891 5891 5890 5890 5889 5888 5887 5886 5885 5885 5884 5883
5850 5854 5858 5862 5866 5872 5876 5879 5881 5883 5884 5885 5884 5883 5884 5886 5887 5889 5889 5889 5889 5890 5891 5891 5892 5892 5892 5892 5892 5892 5892 5892 5892 5891 5891 5891 5891 5891 5890 5890 5889 5888 5887 5886 5885 5883 5882 5881 5881
5849 5852 5855 5858 5862 5866 5871 5874 5877 5880 5882 5884 5884 5882 5881 5883 5887 5888 5889 5889 5889 5889 5890 5891 5891 5891 5892 5892 5892 5891 5891 5891 5891 5890 5890 5890 5890 5890 5889 5888 5887 5886 5885 5883 5882 5880 5879 5878 5878
5846 5849 5851 5854 5858 5861 5864 5868 5873 5876 5879 5881 5881 5880 5880 5884 5886 5886 5887 5888 5888 5888 5889 5890 5890 5891 5891 5891 5890 5890 5890 5890 5889 5889 5889 5888 5888 5888 5887 5886 5884 5883 5881 5879 5878 5876 5875 5875 5874
5844 5847 5849 5852 5854 5857 5860 5863 5867 5872 5875 5877 5877 5875 5877 5881 5884 5885 5885 5886 5887 5887 5888 5889 5889 5889 5889 5889 5889 5889 5889 5888 5888 5888 5886 5886 5885 5884 5883 5882 5880 5878 5876 5874 5872 5871 5870 5869 5868
5841 5844 5846 5849 5851 5853 5856 5860 5864 5869 5872 5874 5874 5874 5876 5880 5882 5882 5882 5883 5885 5886 5887 5887 5887 5887 5887 5887 5887 5886 5886 5886 5886 5885 5884 5882 5881 5880 5879 5877 5875 5872 5870 5868 5866 5864 5863 5862 5861
5837 5841 5844 5846 5848 5851 5854 5857 5862 5867 5870 5872 5873 5874 5877 5878 5879 5879 5879 5879 5882 5884 5885 5885 5885 5885 5885 5885 5884 5884 5883 5883 5883 5882 5881 5879 5878 5876 5875 5872 5870 5866 5864 5861 5859 5857 5855 5854 5854
5834 5837 5841 5844 5845 5848 5852 5856 5861 5864 5867 5870 5872 5874 5875 5876 5877 5876 5876 5877 5879 5881 5882 5882 5883 5883 5883 5882 5882 5881 5881 5880 5879 5878 5877 5875 5874 5872 5871 5868 5865 5862 5858 5855 5852 5850 5848 5847 5846
5830 5834 5838 5841 5843 5845 5849 5854 5859 5863 5865 5867 5869 5871 5872 5873 5874 5874 5873 5873 5875 5878 5879 5879 5879 5880 5880 5879 5879 5878 5878 5877 5876 5875 5874 5872 5870 5868 5867 5864 5861 5858 5854 5851 5848 5845 5842 5840 5839
5828 5832 5836 5839 5841 5843 5847 5851 5855 5859 5863 5865 5866 5868 5869 5869 5870 5871 5869 5868 5871 5874 5876 5876 5875 5876 5876 5875 5875 5874 5874 5873 5871 5871 5869 5867 5866 5864 5862 5859 5857 5853 5850 5846 5843 5840 5837 5835 5833
5824 5830 5835 5839 5841 5841 5844 5849 5852 5855 5859 5861 5863 5864 5866 5866 5866 5865 5865 5865 5867 5870 5872 5872 5871 5871 5871 5871 5870 5869 5868 5867 5866 5866 5864 5862 5860 5859 5857 5855 5852 5849 5846 5842 5839 5836 5833 5831 5829
5819 5824 5830 5836 5838 5838 5840 5844 5848 5851 5854 5856 5857 5859 5859 5859 5859 5860 5861 5862 5863 5865 5867 5868 5867 5866 5866 5866 5865 5864 5863 5862 5861 5860 5858 5856 5854 5853 5850 5849 5846 5844 5841 5838 5835 5832 5829 5826 5824
5814 5819 5825 5831 5833 5834 5836 5840 5843 5845 5848 5850 5852 5852 5852 5853 5856 5858 5859 5860 5860 5860 5861 5862 5861 5860 5860 5859 5858 5857 5856 5855 5854 5853 5851 5850 5848 5846 5844 5842 5840 5838 5835 5833 5830 5827 5824 5821 5819
5810 5815 5819 5823 5827 5829 5832 5834 5838 5840 5842 5843 5844 5844 5847 5850 5852 5853 5854 5855 5855 5854 5854 5854 5854 5854 5853 5852 5851 5850 5849 5848 5847 5845 5844 5842 5840 5838 5836 5835 5833 5831 5829 5826 5824 5821 5818 5816 5813
5805 5810 5814 5817 5819 5823 5826 5829 5834 5835 5835 5836 5835 5838 5842 5845 5847 5847 5848 5848 5848 5848 5847 5847 5846 5846 5845 5844 5843 5842 5841 5840 5838 5837 5836 5834 5832 5831 5828 5827 5826 5824 5822 5819 5816 5814 5811 5808 5805
5801 5805 5808 5811 5814 5817 5821 5824 5828 5829 5828 5827 5827 5832 5836 5838 5839 5839 5840 5840 5840 5840 5840 5839 5839 5838 5837 5836 5835 5834 5833 5831 5829 5828 5827 5826 5824 5822 5821 5819 5817 5815 5813 5810 5808 5805 5802 5799 5796
5796 5801 5804 5807 5810 5813 5817 5819 5821 5820 5820 5820 5823 5826 5828 5829 5830 5831 5831 5831 5832 5832 5831 5831 5831 5830 5829 5828 5826 5825 5824 5823 5821 5819 5818 5817 5816 5814 5812 5810 5808 5806 5803 5801 5798 5795 5792 5789 5786
5792 5796 5801 5806 5810 5812 5814 5814 5814 5812 5814 5816 5818 5819 5820 5820 5821 5822 5822 5822 5822 5823 5823 5822 5822 5821 5821 5819 5818 5817 5816 5814 5812 5811 5809 5808 5806 5804 5802 5800 5798 5796 5793 5790 5787 5784 5781 5777 5774
5788 5792 5797 5800 5802 5805 5808 5806 5803 5805 5808 5810 5811 5811 5811 5811 5812 5812 5812 5813 5813 5813 5814 5814 5813 5813 5812 5811 5810 5809 5807 5805 5803 5802 5800 5798 5796 5794 5792 5790 5787 5785 5782 5778 5775 5772 5769 5765 5761
5786 5788 5792 5794 5797 5799 5803 5802 5800 5800 5801 5802 5802 5802 5802 5802 5802 5802 5803 5803 5804 5804 5804 5805 5805 5804 5804 5803 5802 5800 5798 5796 5794 5792 5790 5788 5785 5783 5781 5778 5775 5772 5769 5766 5762 5759 5755 5751 5747
5782 5785 5787 5790 5793 5795 5798 5799 5791 5791 5791 5791 5791 5791 5792 5792 5793 5794 5794 5795 5795 5796 5796 5796 5796 5795 5794 5793 5792 5791 5789 5787 5784 5782 5779 5777 5774 5771 5769 5766 5762 5759 5756 5752 5749 5745 5741 5737 5733
5778 5780 5782 5785 5786 5788 5791 5792 5785 5786 5784 5783 5782 5782 5783 5784 5785 5786 5786 5786 5787 5787 5787 5787 5786 5786 5785 5783 5782 5780 5778 5776 5773 5771 5768 5765 5762 5759 5756 5752 5749 5746 5742 5739 5735 5731 5727 5722 5718